(132360) = 2002 GB64

Discovered at Palomar on 2002-04-08 by NEAT.

Orbit

Orbit type: Main Belt

Note: WebGL enabled browser required.

epoch2024-03-31.0
epoch JD2460400.5
perihelion date2020-05-02.94939
perihelion JD2458972.44939
argument of perihelion (°)131.87236
ascending node (°)145.64396
inclination (°)2.72908
eccentricity0.1724558
perihelion distance (AU)2.2091594
Tisserand w.r.t. Jupiter3.4
ΔV w.r.t. Earth (km/sec)9.4
semimajor axis (AU)2.6695365
mean anomaly (°)322.69605
mean daily motion (°/day)0.22596960
aphelion distance (AU)3.130
period (years)4.36
P-vector [x]0.13128527
P-vector [y]-0.92306207
P-vector [z]-0.36155302
Q-vector [x]0.99098042
Q-vector [y]0.13208286
Q-vector [z]0.02262586
absolute magnitude16.34
phase slope0.15
uncertainty0
referenceMPEC 2024-F50
observations used516
oppositions18
arc length (days)8016
first opposition used2002
last opposition used2024
residual rms (arc-secs)0.80
perturbers coarse indicatorM-v
perturbers precise indicator003Ek
first observation date used2002-04-08.0
last observation date used2024-03-19.0
computer nameMPCLINUX
JD of orbit computation2456671.009175
perihelion JD uncertainty (days)8.6561E-05
argument of perihelion uncertainty (°)9.8039E-05
ascending node uncertainty (°)9.6714E-05
inclination uncertainty (°)4.7126E-06
eccentricity uncertainty 3.2321E-08
perihelion distance uncertainty (AU)8.9166E-08
Minimum Orbit Intersection Distances (in AU)
for orbit epoch: 2460400.5, reference: E2024-F50
Mercury1.75138
Venus1.48354
Earth1.1937
Mars0.75043
Jupiter1.99162
Saturn5.91607
Uranus15.525
Neptune26.8365

Observations

528 total observations over interval: 2002 04 08.45275 – 2024 03 19.629992
These data are available for download (format description).

Date (UT) J2000 RA J2000 Dec Magn Location Ref
2002 04 08.45275 14 13 30.86 -09 10 14.3 19.4   644 – Palomar Mountain/NEAT MPS 55181
2002 04 08.46365 14 13 30.38 -09 10 10.8 19.4   644 – Palomar Mountain/NEAT MPS 55181
2002 04 08.47576 14 13 29.85 -09 10 07.2 19.5   644 – Palomar Mountain/NEAT MPS 55181
2002 04 09.27194 14 12 55.69 -09 05 59.1 19.4   644 – Palomar Mountain/NEAT MPS 57418
2002 04 09.34540 14 12 52.34 -09 05 36.5 19.3   644 – Palomar Mountain/NEAT MPS 57418
2002 04 09.35959 14 12 51.62 -09 05 33.5 19.2   704 – Lincoln Laboratory ETS, New Mexico MPS 55181
2002 04 09.37124 14 12 51.09 -09 05 30.2 19.7   704 – Lincoln Laboratory ETS, New Mexico MPS 55181
2002 04 09.38295 14 12 50.60 -09 05 25.2 19.9   704 – Lincoln Laboratory ETS, New Mexico MPS 55181
2002 04 09.42035 14 12 48.82 -09 05 13.5 18.9   644 – Palomar Mountain/NEAT MPS 57418
2002 04 14.42019 14 08 58.08 -08 38 39.0 19.2   644 – Palomar Mountain/NEAT MPS 57418
2002 04 14.43208 14 08 57.49 -08 38 34.8 19.2   644 – Palomar Mountain/NEAT MPS 57418
2002 04 14.44260 14 08 56.96 -08 38 31.6 19.0   644 – Palomar Mountain/NEAT MPS 57418
2002 05 08.27189 13 49 12.49 -06 38 02.3 18.8   704 – Lincoln Laboratory ETS, New Mexico MPS 57418
2002 05 08.28453 13 49 11.94 -06 37 59.9 19.5   704 – Lincoln Laboratory ETS, New Mexico MPS 57418
2002 05 08.30941 13 49 10.81 -06 37 53.3 19.3   704 – Lincoln Laboratory ETS, New Mexico MPS 57418
2002 05 08.32183 13 49 10.17 -06 37 50.1 19.5   704 – Lincoln Laboratory ETS, New Mexico MPS 57418
2002 05 18.22277 13 42 39.96 -06 04 36.3 19.0   704 – Lincoln Laboratory ETS, New Mexico MPS 57418
2002 05 18.23774 13 42 39.35 -06 04 34.4 20.3   704 – Lincoln Laboratory ETS, New Mexico MPS 57418
2002 05 18.25272 13 42 38.87 -06 04 32.0 19.8   704 – Lincoln Laboratory ETS, New Mexico MPS 57418
2002 05 18.26770 13 42 38.34 -06 04 29.0 20.2   704 – Lincoln Laboratory ETS, New Mexico MPS 57418
2003 09 21.26402 00 40 50.74 +01 21 21.5 19.2 R 699 – Lowell Observatory-LONEOS MPS 86914
2003 09 21.27064 00 40 50.28 +01 21 17.6   699 – Lowell Observatory-LONEOS MPS 86914
2003 09 21.27723 00 40 49.93 +01 21 18.1   699 – Lowell Observatory-LONEOS MPS 86914
2003 09 21.28387 00 40 49.68 +01 21 15.8   699 – Lowell Observatory-LONEOS MPS 86914
2003 09 26.305380 00 36 41.303 +00 49 29.53 19.77 V 645 – Apache Point-Sloan Digital Sky Survey MPS 136947
2003 09 26.308852 00 36 41.122 +00 49 28.25 20.57   645 – Apache Point-Sloan Digital Sky Survey MPS 136947
2003 09 28.313630 00 34 59.905 +00 36 48.42 19.80 V 645 – Apache Point-Sloan Digital Sky Survey MPS 136947
2003 09 28.317102 00 34 59.722 +00 36 47.00 20.62   645 – Apache Point-Sloan Digital Sky Survey MPS 136947
2003 09 29.24467 00 34 12.86 +00 30 58.5 20.1   704 – Lincoln Laboratory ETS, New Mexico MPS 86914
2003 09 29.25774 00 34 12.16 +00 30 51.8 20.4   704 – Lincoln Laboratory ETS, New Mexico MPS 86914
2003 09 29.27030 00 34 11.50 +00 30 47.3 19.9   704 – Lincoln Laboratory ETS, New Mexico MPS 86914
2003 09 29.28281 00 34 10.88 +00 30 43.4 19.9   704 – Lincoln Laboratory ETS, New Mexico MPS 86914
2003 09 30.26330 00 33 21.25 +00 24 35.3 19.8 V 691 – Steward Observatory, Kitt Peak-Spacewatch MPS 86914
2003 09 30.29019 00 33 19.83 +00 24 25.2 19.8 V 691 – Steward Observatory, Kitt Peak-Spacewatch MPS 86914
2003 09 30.31615 00 33 18.47 +00 24 15.5 19.9 V 691 – Steward Observatory, Kitt Peak-Spacewatch MPS 86914
2003 10 24.19697 00 15 32.20 -01 38 56.1 21.0 V 691 – Steward Observatory, Kitt Peak-Spacewatch MPS 87973
2003 10 24.22399 00 15 31.26 -01 39 01.9 20.8 V 691 – Steward Observatory, Kitt Peak-Spacewatch MPS 87973
2003 10 24.25082 00 15 30.30 -01 39 07.6 20.5 V 691 – Steward Observatory, Kitt Peak-Spacewatch MPS 87973
2004 12 13.26161 06 15 32.14 +20 07 08.3 20.8 V 691 – Steward Observatory, Kitt Peak-Spacewatch MPS 136947
2004 12 13.28726 06 15 30.65 +20 07 09.2 20.6 V 691 – Steward Observatory, Kitt Peak-Spacewatch MPS 136947
2004 12 13.31286 06 15 29.18 +20 07 10.0 20.7 V 691 – Steward Observatory, Kitt Peak-Spacewatch MPS 136947
2006 01 07.48163 11 45 58.68 +02 12 28.3 20.9 V G96 – Mt. Lemmon Survey MPS 158911
2006 01 07.48796 11 45 58.78 +02 12 27.7 21.0 V G96 – Mt. Lemmon Survey MPS 158911
2006 01 07.49435 11 45 58.89 +02 12 27.3 21.6 V G96 – Mt. Lemmon Survey MPS 158911
2006 01 07.50078 11 45 59.00 +02 12 27.0 21.1 V G96 – Mt. Lemmon Survey MPS 158911
2006 02 25.33487 11 35 34.69 +04 16 21.3 20.6 V G96 – Mt. Lemmon Survey MPS 165040
2006 02 25.34061 11 35 34.44 +04 16 23.6 20.4 V G96 – Mt. Lemmon Survey MPS 165040
2006 02 25.34641 11 35 34.18 +04 16 25.7 20.5 V G96 – Mt. Lemmon Survey MPS 165040
2006 02 25.35225 11 35 33.90 +04 16 27.7 20.7 V G96 – Mt. Lemmon Survey MPS 165040
2006 03 03.28349 11 30 58.94 +04 52 51.5   691 – Steward Observatory, Kitt Peak-Spacewatch MPS 166016
2006 03 03.30118 11 30 58.06 +04 52 58.1   691 – Steward Observatory, Kitt Peak-Spacewatch MPS 166016
2006 03 03.31858 11 30 57.18 +04 53 04.7   691 – Steward Observatory, Kitt Peak-Spacewatch MPS 166016
2006 03 05.31992 11 29 19.10 +05 05 47.4 20.2 V G96 – Mt. Lemmon Survey MPS 166016
2006 03 05.32616 11 29 18.74 +05 05 50.0 20.5 V G96 – Mt. Lemmon Survey MPS 166016
2006 03 05.33238 11 29 18.42 +05 05 52.3 20.7 V G96 – Mt. Lemmon Survey MPS 166016
2006 03 05.33858 11 29 18.13 +05 05 54.4 20.5 V G96 – Mt. Lemmon Survey MPS 166016
2006 04 06.12241 11 04 23.64 +08 08 17.7 20.8 V 691 – Steward Observatory, Kitt Peak-Spacewatch MPS 168222
2006 04 06.13820 11 04 23.07 +08 08 21.9 21.2 V 691 – Steward Observatory, Kitt Peak-Spacewatch MPS 168222
2006 04 06.15400 11 04 22.52 +08 08 26.0 21.0 V 691 – Steward Observatory, Kitt Peak-Spacewatch MPS 168222
2007 08 09.21464 21 29 48.94 -14 07 57.4 18.9   704 – Lincoln Laboratory ETS, New Mexico MPS 212989
2007 08 09.22650 21 29 48.29 -14 08 00.6 19.1   704 – Lincoln Laboratory ETS, New Mexico MPS 212989
2007 08 09.23837 21 29 47.66 -14 08 07.1 18.9   704 – Lincoln Laboratory ETS, New Mexico MPS 212989
2007 08 09.25020 21 29 47.05 -14 08 09.8 18.8   704 – Lincoln Laboratory ETS, New Mexico MPS 212989
2007 08 09.26202 21 29 46.43 -14 08 13.0 19.2   704 – Lincoln Laboratory ETS, New Mexico MPS 212989
2007 09 10.22407 21 08 06.10 -16 37 41.5 19.5 V G96 – Mt. Lemmon Survey MPS 215887
2007 09 10.22956 21 08 05.96 -16 37 42.2 19.5 V G96 – Mt. Lemmon Survey MPS 215887
2007 09 10.23514 21 08 05.82 -16 37 43.3 19.4 V G96 – Mt. Lemmon Survey MPS 215887
2007 09 10.24071 21 08 05.67 -16 37 44.3 19.5 V G96 – Mt. Lemmon Survey MPS 215887
2007 10 04.14585 21 07 33.42 -17 07 37.5 20.6 V G96 – Mt. Lemmon Survey MPS 218370
2007 10 04.15074 21 07 33.52 -17 07 37.7 20.9 V G96 – Mt. Lemmon Survey MPS 218370
2007 10 04.15584 21 07 33.63 -17 07 37.5 20.9 V G96 – Mt. Lemmon Survey MPS 218370
2007 10 04.16072 21 07 33.70 -17 07 37.5 20.8 V G96 – Mt. Lemmon Survey MPS 218370
2007 10 10.14360 21 09 54.10 -17 02 42.7 19.9 V G96 – Mt. Lemmon Survey MPS 220005
2007 10 10.15038 21 09 54.28 -17 02 42.5 20.4 V G96 – Mt. Lemmon Survey MPS 220005
2007 10 10.15710 21 09 54.46 -17 02 42.2 20.2 V G96 – Mt. Lemmon Survey MPS 220005
2007 10 10.16377 21 09 54.68 -17 02 41.6 20.3 V G96 – Mt. Lemmon Survey MPS 220005
2008 10 25.41052 04 44 13.95 +18 30 56.9 20.5 V G96 – Mt. Lemmon Survey MPS 262844
2008 10 25.41485 04 44 13.77 +18 30 56.6 20.4 V G96 – Mt. Lemmon Survey MPS 262844
2008 10 25.41926 04 44 13.63 +18 30 56.0 20.3 V G96 – Mt. Lemmon Survey MPS 262844
2008 10 25.42363 04 44 13.48 +18 30 55.2 20.2 V G96 – Mt. Lemmon Survey MPS 262844
2008 12 05.23308 04 10 13.00 +17 03 03.4 19.8 V G96 – Mt. Lemmon Survey MPS 268593
2008 12 05.23976 04 10 12.64 +17 03 02.4 19.6 V G96 – Mt. Lemmon Survey MPS 268593
2008 12 05.24642 04 10 12.25 +17 03 01.7 19.5 V G96 – Mt. Lemmon Survey MPS 268593
2008 12 05.25309 04 10 11.89 +17 03 00.9 19.8 V G96 – Mt. Lemmon Survey MPS 268593
2008 12 30.18669 03 51 50.47 +16 30 34.5 20.3 V G96 – Mt. Lemmon Survey MPS 271512
2008 12 30.19520 03 51 50.22 +16 30 34.6 20.6 V G96 – Mt. Lemmon Survey MPS 271512
2008 12 30.20165 03 51 50.04 +16 30 34.3 20.8 V G96 – Mt. Lemmon Survey MPS 271512
2008 12 30.20814 03 51 49.82 +16 30 34.2 20.3 V G96 – Mt. Lemmon Survey MPS 271512
2010 01 06.39437 09 45 30.54 +12 34 57.4 21.0 V 691 – Steward Observatory, Kitt Peak-Spacewatch MPS 309985
